Volver al catálogo

USA 570

ActivoMilitarLEO
NORAD 66992·PAYLOAD·🇺🇸 United States

Lanzado Dec 9, 2025 desde Cape Canaveral Space Force Station

Loading…

Próximos Pases (próximas 24 horas)

TLE

ObsoletoSource: Mike McCants

Época: Sep 7, 2026, 00:24 UTC

1 66992U 25291A   26250.01684479 0.00000000  00000-0  00000-0 0    08
2 66992  63.4418 302.4218 0108000 180.8117 179.1883 13.41005412    03

Sigue USA 570 en tiempo real con AllMySat

Download on the App Store